Volver al catálogo

THORAD AGENA D DEB

ActivoLEO
NORAD 4768·DEBRIS·🇺🇸 United States

Lanzado Apr 8, 1970 desde Vandenberg Space Force Base

Loading…

Próximos Pases

TLE

Source: Space-Track
1  4768U 70025DN  26225.13078325  .00000147  00000-0  21673-3 0  9999
2  4768 100.1610 273.8815 0029522 233.0611 198.2997 13.71778308805661

Sigue THORAD AGENA D DEB en tiempo real con AllMySat

Download on the App Store